• In Deutschland
  • Länderverzeichnis
  • Für 7 Tage
  • Wassertemperatur
  • Satellitenkarten
  • Wetterkarte
  • Widgets
  • user-avatar
    Anmelden

    Stündliche Wetter Hobart

    Heute, 24 Juli, Montag

    Zeit Temperatur Niederschläge Wind Luftdruck Luftfeuchtigkeit
    00:00 +1°C° 0 mm 5 m/S 743 mmHg 90%
    01:00 +1°C° 0 mm 5 m/S 743 mmHg 89%
    02:00 +2°C° 0 mm 5 m/S 744 mmHg 89%
    03:00 +2°C° 0 mm 5 m/S 744 mmHg 88%
    04:00 +2°C° 0 mm 6 m/S 744 mmHg 88%
    05:00 +2°C° 0 mm 6 m/S 744 mmHg 86%
    06:00 +2°C° 0 mm 6 m/S 744 mmHg 85%
    07:00 +2°C° 0 mm 6 m/S 744 mmHg 84%
    08:00 +3°C° 0 mm 6 m/S 745 mmHg 79%
    09:00 +4°C° 0 mm 7 m/S 745 mmHg 73%
    10:00 +7°C° 0 mm 5 m/S 745 mmHg 69%
    11:00 +7°C° 0 mm 6 m/S 745 mmHg 69%
    12:00 +7°C° 0 mm 6 m/S 745 mmHg 68%
    13:00 +6°C° 0 mm 7 m/S 745 mmHg 67%
    14:00 +6°C° 0 mm 7 m/S 745 mmHg 68%
    15:00 +7°C° 0 mm 6 m/S 745 mmHg 70%
    16:00 +7°C° 0 mm 6 m/S 745 mmHg 71%
    17:00 +5°C° 0 mm 6 m/S 745 mmHg 75%
    18:00 +5°C° 0 mm 5 m/S 745 mmHg 79%
    19:00 +5°C° 0 mm 5 m/S 745 mmHg 83%
    20:00 +5°C° 0 mm 5 m/S 746 mmHg 84%
    21:00 +4°C° 0 mm 4 m/S 746 mmHg 85%
    22:00 +5°C° 0 mm 5 m/S 745 mmHg 84%
    23:00 +5°C° 0 mm 4 m/S 745 mmHg 84%

    Morgen, 25 Juli, Dienstag

    Zeit Temperatur Niederschläge Wind Luftdruck Luftfeuchtigkeit
    00:00 +5°C° 0 mm 4 m/S 744 mmHg 84%
    01:00 +6°C° 0 mm 4 m/S 744 mmHg 84%
    02:00 +6°C° 0 mm 4 m/S 744 mmHg 85%
    03:00 +7°C° 0 mm 3 m/S 744 mmHg 86%
    04:00 +7°C° 0 mm 3 m/S 744 mmHg 87%
    05:00 +5°C° 0 mm 3 m/S 743 mmHg 89%
    06:00 +5°C° 0 mm 3 m/S 743 mmHg 91%
    07:00 +5°C° 0 mm 3 m/S 742 mmHg 93%
    08:00 +7°C° 0 mm 4 m/S 742 mmHg 87%
    09:00 +10°C° 0 mm 4 m/S 741 mmHg 81%
    10:00 +12°C° 0 mm 5 m/S 741 mmHg 75%
    11:00 +12°C° 0 mm 5 m/S 741 mmHg 69%
    12:00 +13°C° 0 mm 5 m/S 740 mmHg 62%
    13:00 +14°C° 0 mm 6 m/S 740 mmHg 56%
    14:00 +13°C° 0 mm 5 m/S 739 mmHg 58%
    15:00 +12°C° 0 mm 5 m/S 739 mmHg 60%
    16:00 +12°C° 0 mm 4 m/S 739 mmHg 63%
    17:00 +10°C° 0 mm 4 m/S 739 mmHg 70%
    18:00 +9°C° 0 mm 3 m/S 739 mmHg 78%
    19:00 +7°C° 0 mm 3 m/S 739 mmHg 85%
    20:00 +7°C° 0 mm 3 m/S 739 mmHg 87%
    21:00 +7°C° 0 mm 3 m/S 739 mmHg 88%
    22:00 +5°C° 0 mm 3 m/S 738 mmHg 89%
    23:00 +5°C° 0 mm 3 m/S 738 mmHg 90%

    übermorgen, 26 Juli, Mittwoch

    Zeit Temperatur Niederschläge Wind Luftdruck Luftfeuchtigkeit
    00:00 +5°C° 0 mm 3 m/S 738 mmHg 90%
    01:00 +6°C° 0 mm 2 m/S 737 mmHg 91%
    02:00 +6°C° 0,7 mm 2 m/S 737 mmHg 92%
    03:00 +6°C° 0,7 mm 2 m/S 737 mmHg 94%
    04:00 +7°C° 0,7 mm 2 m/S 737 mmHg 95%
    05:00 +7°C° 0,6 mm 3 m/S 738 mmHg 96%
    06:00 +6°C° 0,6 mm 4 m/S 739 mmHg 96%
    07:00 +6°C° 0,6 mm 5 m/S 740 mmHg 96%
    08:00 +6°C° 0,3 mm 5 m/S 741 mmHg 95%
    09:00 +6°C° 0,3 mm 5 m/S 742 mmHg 93%
    10:00 +5°C° 0,3 mm 6 m/S 744 mmHg 92%
    11:00 +5°C° 0,2 mm 6 m/S 744 mmHg 88%
    12:00 +4°C° 0,2 mm 6 m/S 745 mmHg 84%
    13:00 +4°C° 0,2 mm 6 m/S 745 mmHg 81%
    14:00 +4°C° 0,1 mm 6 m/S 746 mmHg 78%
    15:00 +5°C° 0,1 mm 5 m/S 747 mmHg 75%
    16:00 +5°C° 0,1 mm 5 m/S 747 mmHg 73%
    17:00 +3°C° 0 mm 5 m/S 748 mmHg 78%
    18:00 +3°C° 0 mm 4 m/S 749 mmHg 84%
    19:00 +1°C° 0 mm 4 m/S 749 mmHg 90%
    20:00 +1°C° 0 mm 3 m/S 750 mmHg 91%
    21:00 +1°C° 0 mm 3 m/S 750 mmHg 92%
    22:00 +1°C° 0 mm 3 m/S 751 mmHg 94%
    23:00 0°C° 0 mm 3 m/S 751 mmHg 94%

    27 Juli, Donnerstag

    Zeit Temperatur Niederschläge Wind Luftdruck Luftfeuchtigkeit
    00:00 0°C° 0 mm 3 m/S 751 mmHg 94%
    01:00 0°C° 0 mm 3 m/S 751 mmHg 94%
    02:00 0°C° 0 mm 3 m/S 751 mmHg 94%
    03:00 0°C° 0 mm 3 m/S 751 mmHg 94%
    04:00 -1°C° 0 mm 3 m/S 751 mmHg 94%
    05:00 -1°C° 0 mm 3 m/S 751 mmHg 94%
    06:00 -1°C° 0 mm 2 m/S 751 mmHg 94%
    07:00 -1°C° 0 mm 2 m/S 751 mmHg 94%
    08:00 +2°C° 0 mm 2 m/S 751 mmHg 85%
    09:00 +4°C° 0 mm 2 m/S 751 mmHg 77%
    10:00 +6°C° 0 mm 2 m/S 751 mmHg 68%
    11:00 +7°C° 0 mm 3 m/S 750 mmHg 62%
    12:00 +9°C° 0 mm 3 m/S 749 mmHg 57%
    13:00 +10°C° 0 mm 4 m/S 748 mmHg 51%
    14:00 +10°C° 0 mm 4 m/S 747 mmHg 54%
    15:00 +10°C° 0 mm 4 m/S 746 mmHg 58%
    16:00 +9°C° 0 mm 5 m/S 745 mmHg 62%
    17:00 +8°C° 0 mm 5 m/S 745 mmHg 66%
    18:00 +7°C° 0 mm 5 m/S 744 mmHg 71%
    19:00 +6°C° 0 mm 5 m/S 744 mmHg 75%
    20:00 +6°C° 0,3 mm 5 m/S 743 mmHg 80%
    21:00 +5°C° 0,3 mm 6 m/S 742 mmHg 85%
    22:00 +5°C° 0,3 mm 6 m/S 742 mmHg 90%
    23:00 +5°C° 0,6 mm 6 m/S 741 mmHg 91%

    28 Juli, Freitag

    Zeit Temperatur Niederschläge Wind Luftdruck Luftfeuchtigkeit
    00:00 +5°C° 0,6 mm 6 m/S 740 mmHg 92%
    01:00 +5°C° 0,6 mm 6 m/S 739 mmHg 93%
    02:00 +5°C° 0,5 mm 6 m/S 739 mmHg 93%
    03:00 +5°C° 0,5 mm 6 m/S 739 mmHg 92%
    04:00 +6°C° 0,5 mm 5 m/S 739 mmHg 92%
    05:00 +5°C° 0 mm 6 m/S 739 mmHg 92%
    06:00 +5°C° 0 mm 6 m/S 740 mmHg 92%
    07:00 +5°C° 0 mm 6 m/S 741 mmHg 92%
    08:00 +5°C° 0 mm 6 m/S 742 mmHg 88%
    09:00 +7°C° 0 mm 6 m/S 742 mmHg 84%
    10:00 +7°C° 0 mm 6 m/S 743 mmHg 80%
    11:00 +8°C° 0 mm 6 m/S 743 mmHg 74%
    12:00 +9°C° 0 mm 6 m/S 744 mmHg 67%
    13:00 +10°C° 0 mm 6 m/S 744 mmHg 61%
    14:00 +9°C° 0 mm 5 m/S 744 mmHg 63%
    15:00 +9°C° 0 mm 5 m/S 744 mmHg 64%
    16:00 +10°C° 0 mm 4 m/S 745 mmHg 66%
    17:00 +7°C° 0 mm 4 m/S 745 mmHg 74%
    18:00 +5°C° 0 mm 3 m/S 746 mmHg 82%
    19:00 +4°C° 0 mm 3 m/S 746 mmHg 90%
    20:00 +3°C° 0 mm 3 m/S 746 mmHg 91%
    21:00 +4°C° 0 mm 2 m/S 746 mmHg 92%
    22:00 +3°C° 0 mm 2 m/S 746 mmHg 92%
    23:00 +3°C° 0 mm 3 m/S 745 mmHg 87%

    29 Juli, Samstag

    Zeit Temperatur Niederschläge Wind Luftdruck Luftfeuchtigkeit
    00:00 +3°C° 0 mm 3 m/S 744 mmHg 82%
    01:00 +4°C° 0 mm 3 m/S 743 mmHg 77%
    02:00 +5°C° 0 mm 4 m/S 742 mmHg 75%
    03:00 +6°C° 0 mm 5 m/S 741 mmHg 73%
    04:00 +7°C° 0 mm 5 m/S 740 mmHg 71%
    05:00 +7°C° 0 mm 6 m/S 739 mmHg 72%
    06:00 +8°C° 0 mm 6 m/S 738 mmHg 74%
    07:00 +9°C° 0 mm 6 m/S 737 mmHg 76%
    08:00 +11°C° 0 mm 6 m/S 737 mmHg 69%
    09:00 +12°C° 0 mm 7 m/S 736 mmHg 63%
    10:00 +15°C° 0 mm 7 m/S 735 mmHg 57%
    11:00 +15°C° 0,2 mm 7 m/S 734 mmHg 61%
    12:00 +14°C° 0,2 mm 7 m/S 734 mmHg 65%
    13:00 +13°C° 0,2 mm 8 m/S 733 mmHg 69%
    14:00 +13°C° 0,6 mm 6 m/S 733 mmHg 76%
    15:00 +10°C° 0,6 mm 5 m/S 733 mmHg 84%
    16:00 +10°C° 0,6 mm 4 m/S 733 mmHg 91%
    17:00 +8°C° 0,5 mm 4 m/S 733 mmHg 92%
    18:00 +8°C° 0,5 mm 4 m/S 734 mmHg 93%
    19:00 +7°C° 0,5 mm 4 m/S 734 mmHg 94%
    20:00 +7°C° 0,1 mm 4 m/S 735 mmHg 94%
    21:00 +7°C° 0,1 mm 4 m/S 735 mmHg 94%
    22:00 +6°C° 0,1 mm 4 m/S 735 mmHg 94%
    23:00 +6°C° 0 mm 4 m/S 735 mmHg 93%
    Mehr zeigen